Regional Weather Roundup
Issued by NWS Albany, NY

Home | Current Version | Previous Version | Text Only | Print | Product List | Glossary On
Versions: 1 2 3 4 5 6 7 8 9 10 11 12 13 14 15 16 17 18 19 20 21 22 23 24 25 26 27
000
ASUS41 KALY 231410
RWRALY

NEW YORK STATE HOURLY WEATHER ROUNDUP
NATIONAL WEATHER SERVICE ALBANY NY
1000 AM EDT THU MAR 23 2017

NOTE: "FAIR" INDICATES FEW OR NO CLOUDS BELOW 12,000 FEET WITH NO
SIGNIFICANT WEATHER AND/OR NO OBSTRUCTIONS TO VISIBILITY.

NYZ032-033-038>043-046>054-057>066-NYZ062>081-082-084-231500-
EAST


CITY           SKY/WX    TMP DP  RH WIND       PRES   REMARKS
ALBANY         SUNNY     24  -1  33 NW7       30.59R WCI  16
GLENS FALLS    SUNNY     24  -4  29 NW12G18   30.55S WCI  13
POUGHKEEPSIE   SUNNY     25  -1  32 N6        30.59R WCI  18
NEWBURGH       SUNNY     19   7  58 W5        30.58R WCI  13
MONTGOMERY     SUNNY     26  -4  27 CALM      30.57R
WHITE PLAINS   SUNNY     27   1  32 NW13      30.56S WCI  16
ISLIP          SUNNY     28   1  31 NW20G25   30.57R WCI  15
NEW YORK CITY  SUNNY     30   3  31 N8        30.61R WCI  22
CENTRAL PARK   SUNNY     27   2  34 W7        30.62R WCI  19
$$

NYZ005>009-017-018-044>046-055-056-231500-
CENTRAL


CITY           SKY/WX    TMP DP  RH WIND       PRES   REMARKS
FULTON         SUNNY    N/A N/A N/A SW3       30.60S
SYRACUSE       MOSUNNY   23   9  55 W8        30.61R WCI  14
ROME           SUNNY     18   5  57 CALM      30.61S
ELMIRA         SUNNY     24  10  55 SW5       30.59R WCI  18
BINGHAMTON     SUNNY     19   5  54 VRB5      30.51R WCI  12
MONTICELLO     SUNNY     21   0  39 N8        30.52S WCI  12
$$

NYZ026>034-041>043-087-231500-
NORTH


CITY           SKY/WX    TMP DP  RH WIND       PRES   REMARKS
WATERTOWN      SUNNY     24  11  57 W8        30.59S WCI  15
FORT DRUM      NOT AVBL
MASSENA        SUNNY     20   4  50 SW7       30.58S WCI  11
SARANAC LAKE   SUNNY     14  -4  44 SW7       30.42F WCI   4
PLATTSBURGH    MIX PCPN  24  -4  29 VRB6G16   30.52S WCI  17
$$

NYZ001>004-010>016-019>021-085-231500-
WEST


CITY           SKY/WX    TMP DP  RH WIND       PRES   REMARKS
NIAGARA FALLS  SUNNY     27  14  58 S3        30.60S
BUFFALO        MOSUNNY   25  14  63 CALM      30.60R
DUNKIRK        SUNNY     27  17  66 CALM      30.60S
JAMESTOWN      SUNNY     21  12  68 CALM      30.51R
WELLSVILLE     SUNNY     23  10  57 NW5       30.50R WCI  17
ROCHESTER      MOSUNNY   26  12  55 VRB5      30.61S WCI  20
PENN YAN       SUNNY     23   8  52 SW5       30.58S WCI  17
$$

             KEY
       WCI = WIND CHILL INDEX
       VSB = VISIBILITY
       HX  = HEAT INDEX
$$




USA.gov is the U.S. government's official web portal to all federal, state and local government web resources and services.